DW4669 Weather Reports


time (UTC)temp
C
wind
direction
speed
KPH
gust
KPH
rain 1hr
cm
rain 24hr
cm
rain mn
cm
humidity
%
barometer
mb
20260506104016 18 0 0.0 6.4 0.00 0.15 0.00 77 1007.7
20260506103513 18 0 0.0 9.7 0.00 0.15 0.00 77 1007.7
20260506103028 17 0 0.0 9.7 0.00 0.15 0.00 77 1007.7
20260506102511 17 0 1.6 6.4 0.00 0.15 0.00 78 1007.6
20260506102011 17 0 0.0 4.8 0.00 0.15 0.00 78 1007.5
20260506101528 17 0 0.0 8.0 0.00 0.15 0.00 78 1007.5
20260506101013 17 0 0.0 9.7 0.00 0.15 0.00 77 1007.4
20260506100513 17 0 0.0 9.7 0.00 0.15 0.00 77 1007.5
20260506100031 17 190 1.6 9.7 0.00 0.15 0.00 77 1007.3
20260506095513 17 179 1.6 9.7 0.00 0.15 0.00 77 1007.4
20260506095015 17 177 0.0 8.0 0.00 0.15 0.00 77 1007.3
20260506094528 17 0 0.0 8.0 0.00 0.15 0.00 77 1007.3
20260506094010 17 0 0.0 8.0 0.00 0.15 0.00 77 1007.5
20260506093516 17 0 0.0 3.2 0.00 0.15 0.00 76 1007.6
20260506093029 17 0 0.0 6.4 0.00 0.15 0.00 76 1007.7
20260506092513 17 200 0.0 8.0 0.00 0.15 0.00 76 1007.6
20260506092010 17 201 3.2 8.0 0.00 0.15 0.00 76 1007.5
20260506091530 17 0 0.0 8.0 0.00 0.15 0.00 75 1007.6
20260506091015 17 0 0.0 11.3 0.00 0.15 0.00 75 1007.5
20260506090509 17 0 0.0 11.3 0.00 0.15 0.00 75 1007.5
20260506090028 17 146 0.0 11.3 0.00 0.15 0.00 74 1007.4
20260506085510 17 0 0.0 11.3 0.00 0.15 0.00 73 1007.5
20260506085011 18 0 0.0 1.6 0.00 0.15 0.00 72 1007.5
20260506084536 18 0 0.0 6.4 0.00 0.15 0.00 71 1007.5
20260506084013 18 0 0.0 6.4 0.00 0.15 0.00 71 1007.6
20260506083511 18 0 0.0 8.0 0.00 0.15 0.00 71 1007.7
20260506083032 18 0 0.0 12.9 0.00 0.15 0.00 70 1007.7
20260506082510 18 0 0.0 12.9 0.00 0.15 0.00 70 1007.7
20260506082011 18 180 1.6 12.9 0.00 0.15 0.00 70 1007.7
20260506081527 18 0 0.0 11.3 0.00 0.15 0.00 70 1007.7
20260506081012 18 196 0.0 11.3 0.00 0.15 0.00 70 1007.8
20260506080514 17 193 0.0 6.4 0.00 0.15 0.00 70 1007.7
20260506073516 18 0 0.0 6.4 0.00 0.15 0.00 68 1007.6
20260506073030 18 0 0.0 6.4 0.00 0.15 0.00 69 1007.7
20260506072512 18 0 0.0 1.6 0.00 0.15 0.00 68 1007.6
20260506072011 18 0 0.0 3.2 0.00 0.15 0.00 66 1007.8
20260506071528 18 0 0.0 3.2 0.00 0.15 0.00 66 1007.8
20260506071010 18 0 0.0 4.8 0.00 0.15 0.00 66 1007.8
20260506070513 19 0 0.0 8.0 0.00 0.15 0.00 66 1007.9
20260506062516 20 0 0.0 8.0 0.00 0.15 0.00 61 1008.1
20260506062012 20 0 0.0 8.0 0.00 0.15 0.00 61 1008.0
20260506061528 20 205 0.0 6.4 0.00 0.15 0.00 61 1008.0
20260506061013 20 0 0.0 14.5 0.00 0.15 0.00 61 1008.1
20260506060509 20 0 0.0 16.1 0.00 0.15 0.00 61 1008.1
20260506051010 20 0 0.0 16.1 0.00 0.15 0.00 60 1008.5
20260506050511 20 200 1.6 11.3 0.00 0.15 0.00 60 1008.6
20260506045012 21 276 0.0 14.5 0.00 0.15 0.00 60 1008.7
20260506044528 21 138 1.6 14.5 0.00 0.15 0.00 59 1008.6
20260506044010 21 193 0.0 12.9 0.00 0.15 0.00 59 1008.7
20260506043514 21 186 3.2 12.9 0.00 0.15 0.00 58 1008.6
20260506043028 21 0 1.6 14.5 0.00 0.15 0.00 59 1008.6
20260506042513 21 189 3.2 14.5 0.00 0.15 0.00 58 1008.6
20260506042014 21 219 1.6 9.7 0.00 0.15 0.00 58 1008.7
20260506041544 21 0 3.2 9.7 0.00 0.15 0.00 58 1008.6
20260506041011 21 224 0.0 9.7 0.00 0.15 0.00 57 1008.5
20260506040512 21 0 0.0 9.7 0.00 0.15 0.00 57 1008.4
20260506040032 21 164 0.0 6.4 0.00 0.15 0.00 55 1008.3
20260506035514 21 88 0.0 4.8 0.00 0.15 0.15 54 1008.2
20260506035011 21 126 0.0 6.4 0.00 0.15 0.15 53 1008.2
20260506034546 21 0 0.0 11.3 0.00 0.15 0.15 52 1008.3
20260506034016 21 186 1.6 12.9 0.00 0.15 0.15 52 1008.3
20260506033515 21 0 3.2 14.5 0.00 0.15 0.15 52 1008.5
20260506033030 21 0 1.6 14.5 0.00 0.15 0.15 51 1008.3
20260506032511 22 193 0.0 6.4 0.00 0.15 0.15 51 1008.2
20260506032011 22 200 0.0 12.9 0.00 0.15 0.15 51 1008.3
20260506031528 22 0 0.0 12.9 0.00 0.15 0.15 50 1008.2
20260506031012 22 227 4.8 12.9 0.00 0.15 0.15 50 1008.3
20260506030514 22 0 1.6 11.3 0.00 0.15 0.15 50 1008.2
20260506030032 22 223 1.6 11.3 0.00 0.15 0.15 49 1008.1
20260506025516 22 0 0.0 11.3 0.00 0.15 0.15 49 1008.0
20260506025012 22 196 1.6 11.3 0.00 0.15 0.15 49 1008.1
20260506024534 22 229 3.2 11.3 0.00 0.15 0.15 49 1008.1
20260506024013 22 171 1.6 11.3 0.00 0.15 0.15 51 1008.1
20260506023516 22 122 1.6 14.5 0.00 0.15 0.15 49 1008.2
20260506023030 22 0 0.0 14.5 0.00 0.15 0.15 50 1008.2
20260506022512 22 191 1.6 14.5 0.00 0.15 0.15 49 1008.3
20260506022012 22 190 1.6 16.1 0.00 0.15 0.15 49 1008.2
20260506021528 22 186 1.6 16.1 0.00 0.15 0.15 48 1008.2
20260506021010 22 0 0.0 12.9 0.00 0.15 0.15 48 1008.3
20260506020516 23 0 3.2 16.1 0.00 0.15 0.15 48 1008.0
20260506020030 23 229 3.2 16.1 0.00 0.15 0.15 47 1008.1
20260506015512 23 212 1.6 14.5 0.00 0.15 0.15 46 1008.1
20260506015011 22 0 3.2 11.3 0.00 0.15 0.15 46 1008.1
20260506014532 22 0 0.0 11.3 0.00 0.15 0.15 46 1008.0
20260506014011 22 145 0.0 9.7 0.00 0.15 0.15 46 1008.0
20260506013513 23 172 0.0 8.0 0.00 0.15 0.15 45 1008.1
20260506013043 23 205 1.6 8.0 0.00 0.15 0.15 44 1008.0
20260506012513 23 0 0.0 8.0 0.00 0.15 0.15 45 1008.0
20260506012012 23 0 0.0 8.0 0.00 0.15 0.15 45 1007.8
20260506011536 23 0 0.0 6.4 0.00 0.15 0.15 44 1007.7
20260506011011 23 0 0.0 8.0 0.00 0.15 0.15 44 1007.7
20260506010511 23 177 1.6 8.0 0.00 0.15 0.15 42 1007.6
20260506010033 23 264 1.6 8.0 0.00 0.15 0.15 43 1007.6
20260506005513 23 0 0.0 11.3 0.00 0.15 0.15 42 1007.5
20260506005013 23 0 1.6 12.9 0.00 0.15 0.15 42 1007.4
20260506004531 23 0 4.8 12.9 0.00 0.15 0.15 42 1007.4
20260506004012 23 238 0.0 11.3 0.00 0.15 0.15 42 1007.3
20260506003512 23 219 0.0 11.3 0.00 0.15 0.15 42 1007.3
20260506003030 23 0 1.6 11.3 0.00 0.15 0.15 42 1007.4
20260506002511 23 239 0.0 6.4 0.00 0.15 0.15 41 1007.3
20260506002013 23 0 0.0 6.4 0.00 0.15 0.15 41 1007.3
20260506001530 23 0 0.0 6.4 0.00 0.15 0.15 41 1007.3
20260506001015 23 0 0.0 14.5 0.00 0.15 0.15 40 1007.3
20260506000514 23 0 3.2 14.5 0.00 0.15 0.15 40 1007.2
20260506000028 23 0 3.2 14.5 0.00 0.15 0.15 40 1007.3
20260505235513 23 209 1.6 14.5 0.00 0.15 0.15 41 1007.1
20260505235017 23 186 1.6 14.5 0.00 0.15 0.15 40 1007.1
20260505234530 24 0 1.6 14.5 0.00 0.15 0.15 40 1007.0
20260505234014 24 198 1.6 19.3 0.00 0.15 0.15 40 1007.0
20260505233513 24 212 3.2 19.3 0.00 0.15 0.15 39 1006.9
20260505233029 24 0 1.6 16.1 0.00 0.15 0.15 39 1006.9
20260505232510 24 0 4.8 16.1 0.00 0.15 0.15 39 1006.9
20260505232011 24 192 3.2 11.3 0.00 0.15 0.15 39 1006.9
20260505231531 24 180 1.6 11.3 0.00 0.15 0.15 39 1006.8
20260505231011 24 196 0.0 8.0 0.00 0.15 0.15 39 1006.7
20260505230514 24 207 0.0 12.9 0.00 0.15 0.15 40 1006.7
20260505230028 25 206 1.6 14.5 0.00 0.15 0.15 39 1006.7
20260505225514 25 254 3.2 17.7 0.00 0.15 0.15 39 1006.7
20260505225014 25 234 3.2 24.1 0.00 0.15 0.15 39 1006.6
20260505224530 25 236 6.4 24.1 0.00 0.15 0.15 39 1006.5
20260505224011 25 0 3.2 16.1 0.00 0.15 0.15 40 1006.5
20260505223512 25 298 1.6 16.1 0.00 0.15 0.15 41 1006.4
20260505223036 25 0 1.6 16.1 0.00 0.15 0.15 40 1006.4
20260505222517 25 277 3.2 16.1 0.00 0.15 0.15 40 1006.1
20260505222015 25 236 4.8 16.1 0.00 0.15 0.15 38 1006.2
20260505221534 25 136 3.2 24.1 0.00 0.15 0.15 38 1006.2
20260505221015 25 190 6.4 24.1 0.00 0.15 0.15 37 1006.1
20260505220512 25 162 3.2 20.9 0.00 0.15 0.15 38 1006.1
20260505220047 26 5 4.8 20.9 0.00 0.15 0.15 37 1005.9
20260505215512 26 352 1.6 12.9 0.00 0.15 0.15 37 1005.9
20260505215011 26 94 3.2 17.7 0.00 0.15 0.15 38 1005.9
20260505214534 26 342 4.8 17.7 0.00 0.15 0.15 36 1005.8
20260505214013 26 255 3.2 17.7 0.00 0.15 0.15 37 1005.9
20260505213514 26 81 8.0 19.3 0.00 0.15 0.15 37 1005.8
20260505213033 26 221 4.8 19.3 0.00 0.15 0.15 36 1005.8
20260505212513 26 189 3.2 11.3 0.00 0.15 0.15 39 1005.8
20260505212015 26 190 1.6 16.1 0.00 0.15 0.15 39 1005.7
20260505211528 26 300 3.2 20.9 0.00 0.15 0.15 38 1005.8
20260505211014 26 267 4.8 20.9 0.00 0.15 0.15 38 1005.7
20260505210510 27 167 6.4 19.3 0.00 0.15 0.15 34 1005.7
20260505210030 27 0 6.4 19.3 0.00 0.15 0.15 33 1005.4
20260505205513 27 209 8.0 19.3 0.00 0.15 0.15 34 1005.5
20260505205011 27 195 3.2 17.7 0.00 0.15 0.15 39 1005.4
20260505204532 27 291 4.8 17.7 0.00 0.15 0.15 38 1005.2
20260505204010 27 293 8.0 17.7 0.00 0.15 0.15 37 1005.3
20260505203511 27 261 4.8 24.1 0.00 0.15 0.15 36 1005.2
20260505203031 27 263 3.2 24.1 0.00 0.15 0.15 37 1005.3
20260505202513 27 202 4.8 22.5 0.00 0.15 0.15 36 1005.5
20260505202012 27 292 4.8 22.5 0.00 0.15 0.15 39 1005.6
20260505201530 27 348 3.2 24.1 0.00 0.15 0.15 38 1005.7
20260505201027 27 338 11.3 24.1 0.00 0.15 0.15 36 1005.9
20260505200515 27 271 4.8 17.7 0.00 0.15 0.15 38 1005.7
20260505200035 27 236 4.8 14.5 0.00 0.15 0.15 39 1006.0
20260505195511 28 229 1.6 22.5 0.00 0.15 0.15 41 1005.9
20260505195015 28 340 1.6 22.5 0.00 0.15 0.15 42 1005.7
20260505194528 28 309 1.6 16.1 0.00 0.15 0.15 41 1005.8
20260505194012 27 155 4.8 16.1 0.00 0.15 0.15 39 1005.8
20260505193510 28 236 4.8 19.3 0.00 0.15 0.15 40 1005.9
20260505193031 28 244 8.0 19.3 0.00 0.15 0.15 38 1006.0
20260505192510 27 191 3.2 25.7 0.00 0.15 0.15 41 1006.1
20260505192014 27 244 4.8 25.7 0.00 0.15 0.15 38 1006.1
20260505191535 27 154 6.4 20.9 0.00 0.15 0.15 39 1006.3
20260505191014 27 182 4.8 19.3 0.00 0.15 0.15 39 1006.2
20260505190518 27 155 3.2 25.7 0.00 0.15 0.15 40 1006.3
20260505190032 27 352 4.8 25.7 0.00 0.15 0.15 39 1006.6
20260505185515 27 180 8.0 19.3 0.00 0.15 0.15 42 1006.6
20260505185011 27 237 6.4 17.7 0.00 0.15 0.15 42 1006.5
20260505184532 27 302 6.4 17.7 0.00 0.15 0.15 41 1006.7
20260505184013 27 201 3.2 20.9 0.00 0.15 0.15 45 1006.6
20260505183511 27 301 3.2 20.9 0.00 0.15 0.15 43 1006.9
20260505183036 27 188 4.8 22.5 0.00 0.15 0.15 44 1006.9
20260505182511 27 161 4.8 22.5 0.00 0.15 0.15 43 1007.2
20260505182012 26 261 6.4 19.3 0.00 0.15 0.15 45 1007.2
20260505181529 26 312 6.4 24.1 0.00 0.15 0.15 46 1007.1
20260505181013 26 243 9.7 24.1 0.00 0.15 0.15 47 1007.3
20260505180510 26 227 4.8 20.9 0.00 0.15 0.15 46 1007.3
20260505180028 26 317 12.9 25.7 0.00 0.15 0.15 46 1007.4
20260505175513 26 311 6.4 25.7 0.00 0.15 0.15 46 1007.2
20260505175011 26 330 9.7 22.5 0.00 0.15 0.15 44 1007.2
20260505174530 26 321 8.0 20.9 0.00 0.15 0.15 45 1007.1
20260505174012 26 298 9.7 19.3 0.00 0.15 0.15 45 1007.3
20260505173517 26 348 4.8 19.3 0.00 0.15 0.15 47 1007.4
20260505173028 26 243 6.4 19.3 0.00 0.15 0.15 46 1007.4
20260505172513 26 346 6.4 19.3 0.00 0.15 0.15 48 1007.6
20260505172015 26 290 6.4 19.3 0.00 0.15 0.15 47 1007.7
20260505171531 26 211 3.2 19.3 0.00 0.15 0.15 48 1007.6
20260505171016 26 184 3.2 16.1 0.00 0.15 0.15 50 1007.6
20260505170513 26 0 6.4 22.5 0.00 0.15 0.15 48 1007.6
20260505170033 26 207 1.6 22.5 0.00 0.15 0.15 51 1007.6
20260505165510 26 121 4.8 17.7 0.00 0.15 0.15 50 1007.8
20260505165010 26 268 3.2 14.5 0.00 0.15 0.15 48 1007.8
20260505164531 26 224 4.8 17.7 0.00 0.15 0.15 49 1008.0
20260505164012 25 244 4.8 17.7 0.00 0.15 0.15 49 1008.1
20260505163515 25 0 1.6 14.5 0.00 0.15 0.15 52 1008.2
20260505163030 25 247 1.6 14.5 0.00 0.15 0.15 53 1008.3
20260505162521 25 240 3.2 14.5 0.00 0.15 0.15 48 1008.5
20260505162012 25 229 1.6 17.7 0.00 0.15 0.15 53 1008.5
20260505161539 25 190 3.2 17.7 0.00 0.15 0.15 51 1008.5
20260505161014 25 304 4.8 17.7 0.00 0.15 0.15 51 1008.6
20260505160518 24 299 8.0 17.7 0.00 0.15 0.15 49 1008.7
20260505153029 23 72 3.2 16.1 0.00 0.15 0.15 55 1009.1
20260505152510 23 0 6.4 17.7 0.00 0.15 0.15 53 1009.2
20260505152012 23 338 6.4 17.7 0.00 0.15 0.15 55 1009.1
20260505151531 23 217 1.6 16.1 0.00 0.15 0.15 56 1009.3
20260505151013 23 217 6.4 16.1 0.00 0.15 0.15 56 1009.4
20260505150513 23 285 4.8 16.1 0.00 0.15 0.15 57 1009.3
20260505140512 22 88 4.8 22.5 0.00 0.15 0.15 63 1009.5
20260505125013 15 331 0.0 9.7 0.00 0.15 0.15 87 1009.2
20260505124530 15 335 1.6 9.7 0.00 0.15 0.15 88 1009.2
20260505124014 15 303 1.6 4.8 0.00 0.15 0.15 89 1009.0
20260505123514 14 0 0.0 3.2 0.00 0.15 0.15 89 1008.9
20260505123033 13 273 0.0 4.8 0.00 0.15 0.15 89 1008.9
20260505122511 13 0 0.0 4.8 0.00 0.15 0.15 91 1008.9
20260505122014 13 0 0.0 1.6 0.00 0.15 0.15 92 1008.9
20260505121534 13 0 0.0 1.6 0.00 0.15 0.15 92 1008.9
20260505121011 12 0 0.0 1.6 0.00 0.15 0.15 92 1008.9
20260505120517 12 0 0.0 1.6 0.00 0.15 0.15 92 1009.0
20260505120030 12 0 0.0 1.6 0.03 0.15 0.15 94 1009.0
20260505115513 12 0 0.0 0.0 0.03 0.15 0.15 94 1009.0
20260505115011 12 0 0.0 0.0 0.03 0.15 0.15 93 1008.9
20260505114533 12 0 0.0 0.0 0.03 0.15 0.15 93 1009.1
20260505114014 12 0 0.0 0.0 0.03 0.15 0.15 93 1009.2
20260505113511 12 0 0.0 0.0 0.05 0.15 0.15 93 1009.1
20260505113029 12 0 0.0 0.0 0.05 0.15 0.15 92 1009.3
20260505112513 12 0 0.0 0.0 0.13 0.15 0.15 92 1009.3
20260505112014 12 0 0.0 0.0 0.15 0.15 0.15 92 1009.2
20260505111529 12 0 0.0 0.0 0.15 0.15 0.15 92 1009.0
20260505111013 12 0 0.0 3.2 0.15 0.15 0.15 91 1009.0
20260505110514 12 0 0.0 3.2 0.15 0.15 0.15 91 1009.1